Marrakech, Morocco

8:51 AM WET on February 09, 2016 (GMT +0000)
Menara

Weather History for GMMX - August, 2012

Change the Weather History Date:

Monday, August 27, 2012

  Actual Average Record
Temperature  
Mean Temperature 89 °F -  
Max Temperature 107 °F 89 °F 113 °F (2010)
Min Temperature 71 °F 64 °F 62 °F (2013)
Cooling Degree Days 24    
Growing Degree Days 39 (Base 50)    
Moisture  
Dew Point 57 °F    
Average Humidity 35    
Maximum Humidity 65    
Minimum Humidity 12    
Precipitation  
Precipitation 0.00 in 0.01 in - ()
Sea Level Pressure  
Sea Level Pressure 30.07 in    
Wind  
Wind Speed 4 mph ()    
Max Wind Speed 10 mph    
Max Gust Speed -    
Visibility 6.2 miles    
Events      
Averages and records for this station are not official NWS values.
T = Trace of Precipitation, MM = Missing Value Source: Averaged Metar Reports

Daily Weather History Graph

Daily Weather History Graph

Search for Another Location

Airport or City:

Trip Planner

Search our weather history database for the weather conditions in past years. The results will help you decide how hot, cold, wet, or windy it might be!

Date:

Astronomy

Aug. 27, 2012 Rise Set
Actual Time 7:04 AM WEST 8:01 PM WEST
Civil Twilight 6:39 AM WEST 8:26 PM WEST
Nautical Twilight 6:10 AM WEST 8:56 PM WEST
Astronomical Twilight 5:39 AM WEST 9:26 PM WEST
Moon 5:00 PM WEST (8/27) 2:45 AM WEST (8/27)
Length of Visible Light 13h 46m
Length of Day
12h 56m
Waxing Gibbous, 81% of the Moon is Illuminated
Aug 27
Waxing Gibbous
Aug 31
Full
Sep 8
Last Quarter
Sep 16
New
Sep 22
First Quarter

Hourly Weather History & Observations

Time (WEST) Temp. Heat Index Dew Point Humidity Pressure Visibility Wind Dir Wind Speed Gust Speed Precip Events Conditions
12:00 AM 86.0 °F 84.9 °F 57.2 °F 37% 30.15 in 6.2 mi East 3.5 mph - N/A   Mostly Cloudy
12:30 AM 86.0 °F 84.9 °F 57.2 °F 37% 30.15 in 6.2 mi Variable 1.2 mph - N/A   Mostly Cloudy
1:00 AM 83 °F - 59 °F 34% 30.05 in 6 mi Calm Calm - -   Scattered Clouds
1:00 AM 84.2 °F 83.8 °F 59.0 °F 42% 30.15 in 6.2 mi Calm Calm - N/A   Mostly Cloudy
1:30 AM 82.4 °F 82.9 °F 60.8 °F 48% 30.12 in 6.2 mi Variable 1.2 mph - N/A   Scattered Clouds
2:00 AM 80.6 °F 81.1 °F 59.0 °F 48% 30.12 in 6.2 mi Calm Calm - N/A   Scattered Clouds
2:30 AM 78.8 °F - 60.8 °F 54% 30.09 in 6.2 mi ESE 2.3 mph - N/A   Scattered Clouds
3:00 AM 82.4 °F 82.5 °F 59.0 °F 45% 30.09 in 6.2 mi ESE 5.8 mph - N/A   Scattered Clouds
3:30 AM 84.2 °F 83.8 °F 59.0 °F 42% 30.06 in 6.2 mi ESE 5.8 mph - N/A   Scattered Clouds
4:00 AM 81 °F - 59 °F 37% 29.99 in 6 mi NNE 3.5 mph - -   Scattered Clouds
4:00 AM 80.6 °F 81.1 °F 59.0 °F 48% 30.06 in 6.2 mi NNE 3.5 mph - N/A   Scattered Clouds
4:30 AM 80.6 °F 81.1 °F 59.0 °F 48% 30.06 in 6.2 mi East 2.3 mph - N/A   Scattered Clouds
5:00 AM 80.6 °F 81.1 °F 59.0 °F 48% 30.06 in 6.2 mi East 2.3 mph - N/A   Unknown
5:30 AM 78.8 °F - 57.2 °F 47% 30.06 in 6.2 mi East 3.5 mph - N/A   Unknown
6:00 AM 78.8 °F - 59.0 °F 51% 30.06 in 6.2 mi NE 3.5 mph - N/A   Unknown
6:30 AM 78.8 °F - 59.0 °F 51% 30.06 in 6.2 mi ESE 2.3 mph - N/A   Unknown
7:00 AM 77 °F - 59 °F 44% 30.00 in 6 mi Calm Calm - -  
7:00 AM 78.8 °F - 59.0 °F 51% 30.06 in 6.2 mi Calm Calm - N/A   Unknown
7:30 AM 73.4 °F - 60.8 °F 65% 30.09 in 6.2 mi West 9.2 mph - N/A   Scattered Clouds
8:00 AM 73.4 °F - 60.8 °F 65% 30.09 in 6.2 mi West 5.8 mph - N/A   Scattered Clouds
8:30 AM 77.0 °F - 62.6 °F 61% 30.09 in 6.2 mi West 4.6 mph - N/A   Scattered Clouds
9:00 AM 80.6 °F 81.8 °F 62.6 °F 54% 30.09 in 6.2 mi West 5.8 mph - N/A   Scattered Clouds
9:30 AM 82.4 °F 83.4 °F 62.6 °F 51% 30.09 in 6.2 mi Variable 2.3 mph - N/A   Scattered Clouds
10:00 AM 87.8 °F 87.6 °F 60.8 °F 40% 30.09 in 6.2 mi Calm Calm - N/A   Scattered Clouds
10:30 AM 93.2 °F 93.3 °F 60.8 °F 34% 30.09 in 6.2 mi Variable 2.3 mph - N/A   Scattered Clouds
11:00 AM 95.0 °F 94.4 °F 59.0 °F 30% 30.12 in 6.2 mi Variable 3.5 mph - N/A   Scattered Clouds
11:30 AM 96.8 °F 95.1 °F 55.4 °F 25% 30.09 in 6.2 mi North 3.5 mph - N/A   Scattered Clouds
12:00 PM 98.6 °F 96.4 °F 53.6 °F 22% 30.09 in 6.2 mi NNE 3.5 mph - N/A   Scattered Clouds
12:30 PM 100.4 °F 98.8 °F 55.4 °F 22% 30.09 in 6.2 mi NNE 4.6 mph - N/A   Scattered Clouds
1:00 PM 102 °F - 54 °F 12% 29.94 in 6 mi North 5.8 mph - -   Partly Cloudy
1:00 PM 102.2 °F 100.4 °F 53.6 °F 20% 30.06 in 6.2 mi North 5.8 mph - N/A   Scattered Clouds
1:30 PM 102.2 °F 100.4 °F 53.6 °F 20% 30.06 in 6.2 mi North 6.9 mph - N/A   Scattered Clouds
2:00 PM 104.0 °F 102.3 °F 53.6 °F 19% 30.06 in 6.2 mi North 5.8 mph - N/A   Scattered Clouds
2:30 PM 105.8 °F 104.9 °F 55.4 °F 19% 30.06 in 6.2 mi Variable 5.8 mph - N/A   Scattered Clouds
3:00 PM 105.8 °F 104.3 °F 53.6 °F 18% 30.06 in 6.2 mi WNW 10.4 mph - N/A   Scattered Clouds
3:30 PM 105.8 °F - 51.8 °F 17% 30.06 in 6.2 mi West 8.1 mph - N/A   Scattered Clouds
4:00 PM 107.6 °F - 51.8 °F 16% 30.04 in 6.2 mi NNW 6.9 mph - N/A   Scattered Clouds
4:30 PM 107.6 °F - 51.8 °F 16% 30.04 in 6.2 mi NW 9.2 mph - N/A   Scattered Clouds
5:00 PM 105.8 °F 104.3 °F 53.6 °F 18% 30.04 in 6.2 mi NNW 9.2 mph - N/A   Scattered Clouds
5:30 PM 104.0 °F 102.9 °F 55.4 °F 20% 30.04 in 6.2 mi North 9.2 mph - N/A   Scattered Clouds
6:00 PM 102.2 °F 100.4 °F 53.6 °F 20% 30.04 in 6.2 mi North 9.2 mph - N/A   Scattered Clouds
6:30 PM 98.6 °F 97.2 °F 55.4 °F 24% 30.06 in 6.2 mi NNW 10.4 mph - N/A   Mostly Cloudy
7:00 PM 96.8 °F 95.8 °F 57.2 °F 27% 30.06 in 6.2 mi NNW 9.2 mph - N/A   Mostly Cloudy
7:30 PM 96.8 °F 95.1 °F 55.4 °F 25% 30.09 in 6.2 mi Variable 3.5 mph - N/A   Mostly Cloudy
8:00 PM 96.8 °F - 51.8 °F 22% 30.09 in 6.2 mi Variable 5.8 mph - N/A   Scattered Clouds
8:30 PM 93.2 °F 91.3 °F 55.4 °F 28% 30.09 in 6.2 mi Variable 2.3 mph - N/A   Scattered Clouds
9:00 PM 91.4 °F 89.4 °F 55.4 °F 29% 30.09 in 6.2 mi NNE 6.9 mph - N/A   Partly Cloudy
9:30 PM 89.6 °F 87.3 °F 53.6 °F 29% 30.09 in 6.2 mi NNE 9.2 mph - N/A   Partly Cloudy
10:00 PM 87 °F - 55 °F 24% 30.01 in 6 mi NNE 8.1 mph - -   Scattered Clouds
10:00 PM 87.8 °F 86.1 °F 55.4 °F 33% 30.09 in 6.2 mi NNE 6.9 mph - N/A   Partly Cloudy
10:30 PM 86.0 °F 84.9 °F 57.2 °F 37% 30.09 in 6.2 mi North 6.9 mph - N/A   Partly Cloudy
11:00 PM 84.2 °F 83.5 °F 57.2 °F 40% 30.12 in 6.2 mi NNE 4.6 mph - N/A   Scattered Clouds
11:30 PM 84.2 °F 83.5 °F 57.2 °F 40% 30.12 in 6.2 mi ENE 4.6 mph - N/A   Partly Cloudy